Regional Weather Roundup
Issued by NWS

Home | Current Version | Previous Version | Graphics & Text | Print | Product List | Glossary On
Versions: 1 2 3 4 5 6 7 8 9 10 11 12 13 14 15 16 17 18 19 20 21 22 23 24 25 26 27
000
ASUS45 KCYS 251810
RWRWY

WYOMING REGIONAL WEATHER ROUNDUP
NATIONAL WEATHER SERVICE CHEYENNE WY
1200 PM MDT THU AUG 25 2016

NOTE:  "FAIR" INDICATES FEW OR NO CLOUDS BELOW 12,000 FEET
WITH NO SIGNIFICANT WEATHER AND/OR OBSTRUCTIONS TO VISIBILITY.

WYZ001-251900-
YELLOWSTONE NATIONAL PARK

CITY           SKY/WX    TMP DP  RH WIND       PRES   REMARKS
LK YELLOWSTONE   N/A     53  37  54 E5        30.34F
6HR MIN TEMP:  28; 6HR MAX TEMP:  53;

W YELLOWSTONE  NOT AVBL

$$
WYZ002>013-054>058-071-098>099-251900-
NORTHERN WYOMING

CITY           SKY/WX    TMP DP  RH WIND       PRES   REMARKS
JACKSON        SUNNY     61  37  41 SW12      30.27F
CODY           CLOUDY    57  41  54 NW5       30.29F
GREYBULL       CLOUDY    62  37  39 VRB5      30.26F
6HR MIN TEMP:  52; 6HR MAX TEMP:  63;

WORLAND        PTSUNNY   60  41  49 SE3       30.27F
6HR MIN TEMP:  51; 6HR MAX TEMP:  60;

SHERIDAN       FAIR      63  39  41 E6        30.28F
6HR MIN TEMP:  43; 6HR MAX TEMP:  65;

BUFFALO        PTSUNNY   59  38  45 S10       30.32F
6HR MIN TEMP:  48; 6HR MAX TEMP:  60;

GILLETTE       PTSUNNY   59  39  47 VRB6      30.30F
6HR MIN TEMP:  43; 6HR MAX TEMP:  60;

HULETT         FAIR      59  36  41 N5        30.32F
NEWCASTLE      FAIR      59  39  47 NW10      30.30F

$$
WYZ014>020-022>026-101>103-251900-
CENTRAL WYOMING

CITY           SKY/WX    TMP DP  RH WIND       PRES   REMARKS
BIG PINEY      FAIR      59  37  44 VRB6      30.31F
6HR MIN TEMP:  35; 6HR MAX TEMP:  59;

PINEDALE       FAIR      55  36  47 CALM      30.33F
DUBOIS         CLOUDY    50  37  62 E5        30.33F
LANDER         CLOUDY    58  42  55 E6        30.29F
6HR MIN TEMP:  48; 6HR MAX TEMP:  59;

RIVERTON       CLOUDY    56  42  59 CALM      30.31F
6HR MIN TEMP:  48; 6HR MAX TEMP:  57;

CASPER         FAIR      57  45  64 E8        30.31F
6HR MIN TEMP:  48; 6HR MAX TEMP:  58;

DOUGLAS        CLOUDY    52  46  80 CALM      30.34F
6HR MIN TEMP:  47; 6HR MAX TEMP:  52; 6HR PCP:  0.01;


$$
WYZ021-027>030-104>119-251900-
SOUTHERN WYOMING

CITY           SKY/WX    TMP DP  RH WIND       PRES   REMARKS
EVANSTON       PTSUNNY   56  35  45 CALM      30.31S
6HR MIN TEMP:  41; 6HR MAX TEMP:  57;

FORT BRIDGER   FAIR      60  39  45 NE8       30.32F
ROCK SPRINGS   FAIR      60  38  43 MISG      30.30F
6HR MIN TEMP:  43; 6HR MAX TEMP:  61;

DIXON          FAIR      62  39  42 W5        30.31F
RAWLINS        FAIR      60  39  45 VRB6      30.31F
6HR MIN TEMP:  47; 6HR MAX TEMP:  61;

SARATOGA       FAIR      61  41  48 NW6G21    30.31F
LARAMIE        FAIR      63  39  41 SE17G35   30.30F
6HR MIN TEMP:  42; 6HR MAX TEMP:  63;

CHEYENNE       FAIR      59  43  55 E8        30.33F
6HR MIN TEMP:  46; 6HR MAX TEMP:  59;

TORRINGTON     PTSUNNY   64  42  44 VRB6G17   30.29F
6HR MIN TEMP:  52; 6HR MAX TEMP:  64;

PINE BLUFFS    FAIR      61  45  55 NE10      30.31F

$$




USA.gov is the U.S. government's official web portal to all federal, state and local government web resources and services.